Time,TemperatureF,DewpointF,PressureIn,WindDirection,WindDirectionDegrees,WindSpeedMPH,WindSpeedGustMPH,Humidity,HourlyPrecipIn,Conditions,Clouds,dailyrainin,SoftwareType,DateUTC
2013-03-07 13:23:00,48.0,37.0,29.98,SSW,213,2.0,-999.0,66,-99.99,,,-99.99,,2013-03-07 21:23:00,
2013-03-07 13:33:00,48.0,37.0,29.98,SSW,213,2.0,-999.0,66,-99.99,,,-99.99,,2013-03-07 21:33:00,
2013-03-07 13:43:00,48.0,37.0,29.98,SSW,213,2.0,-999.0,66,-99.99,,,-99.99,,2013-03-07 21:43:00,
2013-03-07 13:52:00,49.0,37.0,29.97,West,268,2.0,-999.0,64,-99.99,,,-99.99,,2013-03-07 21:52:00,
2013-03-07 14:01:00,49.0,37.0,29.97,West,268,2.0,-999.0,64,-99.99,,,-99.99,,2013-03-07 22:01:00,
2013-03-07 14:11:00,49.0,37.0,29.97,West,268,2.0,-999.0,64,-99.99,,,-99.99,,2013-03-07 22:11:00,
2013-03-07 14:21:00,49.0,37.0,29.97,WSW,239,1.0,-999.0,64,-99.99,,,-99.99,,2013-03-07 22:21:00,
2013-03-07 14:31:00,49.0,37.0,29.97,WSW,239,1.0,-999.0,64,-99.99,,,-99.99,,2013-03-07 22:31:00,
2013-03-07 14:43:00,49.0,37.0,29.97,WSW,239,1.0,-999.0,64,-99.99,,,-99.99,,2013-03-07 22:43:00,
2013-03-07 14:53:00,50.0,37.0,29.96,WNW,298,2.0,-999.0,61,-99.99,,,-99.99,,2013-03-07 22:53:00,
2013-03-07 15:01:00,50.0,37.0,29.96,WNW,298,2.0,-999.0,61,-99.99,,,-99.99,,2013-03-07 23:01:00,
2013-03-07 15:12:00,50.0,37.0,29.96,WNW,298,2.0,-999.0,61,-99.99,,,-99.99,,2013-03-07 23:12:00,
2013-03-07 15:21:00,51.0,38.0,29.97,WNW,301,0.0,-999.0,61,-99.99,,,-99.99,,2013-03-07 23:21:00,
2013-03-07 15:31:00,51.0,38.0,29.97,WNW,301,0.0,-999.0,61,-99.99,,,-99.99,,2013-03-07 23:31:00,
2013-03-07 15:44:00,51.0,38.0,29.97,WNW,301,0.0,-999.0,61,-99.99,,,-99.99,,2013-03-07 23:44:00,
2013-03-07 15:53:00,52.0,39.0,29.97,WSW,248,1.0,-999.0,60,-99.99,,,-99.99,,2013-03-07 23:53:00,
2013-03-07 16:01:00,52.0,39.0,29.97,WSW,248,1.0,-999.0,60,-99.99,,,-99.99,,2013-03-08 00:01:00,
2013-03-07 16:12:00,52.0,39.0,29.97,WSW,248,1.0,-999.0,60,-99.99,,,-99.99,,2013-03-08 00:12:00,
2013-03-07 16:22:00,51.0,40.0,29.97,North,352,0.0,-999.0,66,-99.99,,,-99.99,,2013-03-08 00:22:00,
2013-03-07 16:32:00,51.0,40.0,29.97,North,352,0.0,-999.0,66,-99.99,,,-99.99,,2013-03-08 00:32:00,
2013-03-07 16:44:00,51.0,40.0,29.97,North,352,0.0,-999.0,66,-99.99,,,-99.99,,2013-03-08 00:44:00,
2013-03-07 16:53:00,50.0,41.0,29.97,North,352,0.0,-999.0,70,-99.99,,,-99.99,,2013-03-08 00:53:00,
2013-03-07 17:01:00,50.0,41.0,29.97,North,352,0.0,-999.0,70,-99.99,,,-99.99,,2013-03-08 01:01:00,
2013-03-07 17:11:00,50.0,41.0,29.97,North,352,0.0,-999.0,70,-99.99,,,-99.99,,2013-03-08 01:11:00,
2013-03-07 17:21:00,48.0,41.0,29.97,NNW,344,0.0,-999.0,76,-99.99,,,-99.99,,2013-03-08 01:21:00,
2013-03-07 17:31:00,48.0,41.0,29.97,NNW,344,0.0,-999.0,76,-99.99,,,-99.99,,2013-03-08 01:31:00,
2013-03-07 17:42:00,48.0,41.0,29.97,NNW,344,0.0,-999.0,76,-99.99,,,-99.99,,2013-03-08 01:42:00,
2013-03-07 17:52:00,46.0,41.0,29.97,NNW,344,0.0,-999.0,81,-99.99,,,-99.99,,2013-03-08 01:52:00,
2013-03-07 18:01:00,46.0,41.0,29.97,NNW,344,0.0,-999.0,81,-99.99,,,-99.99,,2013-03-08 02:01:00,
2013-03-07 18:11:00,45.0,40.0,29.98,NNW,342,0.0,-999.0,84,-99.99,,,-99.99,,2013-03-08 02:11:00,
2013-03-07 18:21:00,45.0,40.0,29.98,NNW,342,0.0,-999.0,84,-99.99,,,-99.99,,2013-03-08 02:21:00,
2013-03-07 18:31:00,45.0,40.0,29.98,NNW,342,0.0,-999.0,84,-99.99,,,-99.99,,2013-03-08 02:31:00,
2013-03-07 18:42:00,45.0,40.0,29.98,NNW,342,0.0,-999.0,84,-99.99,,,-99.99,,2013-03-08 02:42:00,
2013-03-07 18:52:00,43.0,39.0,29.98,NNW,342,0.0,-999.0,86,-99.99,,,-99.99,,2013-03-08 02:52:00,
2013-03-07 19:01:00,43.0,39.0,29.98,NNW,342,0.0,-999.0,86,-99.99,,,-99.99,,2013-03-08 03:01:00,
2013-03-07 19:11:00,43.0,39.0,29.98,NNW,342,0.0,-999.0,86,-99.99,,,-99.99,,2013-03-08 03:11:00,
2013-03-07 19:21:00,42.0,39.0,29.99,NNW,343,0.0,-999.0,89,-99.99,,,-99.99,,2013-03-08 03:21:00,
2013-03-07 19:31:00,42.0,39.0,29.99,NNW,343,0.0,-999.0,89,-99.99,,,-99.99,,2013-03-08 03:31:00,
2013-03-07 19:43:00,42.0,39.0,29.99,NNW,343,0.0,-999.0,89,-99.99,,,-99.99,,2013-03-08 03:43:00,
2013-03-07 19:52:00,40.0,38.0,29.99,NNW,343,0.0,-999.0,91,-99.99,,,-99.99,,2013-03-08 03:52:00,
2013-03-07 20:01:00,40.0,38.0,29.99,NNW,343,0.0,-999.0,91,-99.99,,,-99.99,,2013-03-08 04:01:00,
2013-03-07 20:11:00,40.0,38.0,29.99,NNW,343,0.0,-999.0,91,-99.99,,,-99.99,,2013-03-08 04:11:00,
2013-03-07 20:31:00,39.0,37.0,30.00,NNW,343,0.0,-999.0,93,-99.99,,,-99.99,,2013-03-08 04:31:00,
2013-03-07 20:42:00,39.0,37.0,30.00,NNW,343,0.0,-999.0,93,-99.99,,,-99.99,,2013-03-08 04:42:00,
2013-03-07 20:52:00,39.0,37.0,30.00,NNW,343,0.0,-999.0,94,-99.99,,,-99.99,,2013-03-08 04:52:00,
2013-03-07 21:01:00,39.0,37.0,30.00,NNW,343,0.0,-999.0,94,-99.99,,,-99.99,,2013-03-08 05:01:00,
2013-03-07 21:12:00,39.0,37.0,30.00,NNW,343,0.0,-999.0,94,-99.99,,,-99.99,,2013-03-08 05:12:00,
2013-03-07 21:22:00,38.0,36.0,30.00,NNW,343,0.0,-999.0,94,-99.99,,,-99.99,,2013-03-08 05:22:00,
2013-03-07 21:31:00,38.0,36.0,30.00,NNW,343,0.0,-999.0,94,-99.99,,,-99.99,,2013-03-08 05:31:00,
2013-03-07 21:42:00,38.0,36.0,30.00,NNW,343,0.0,-999.0,94,-99.99,,,-99.99,,2013-03-08 05:42:00,
2013-03-07 21:52:00,37.0,35.0,30.00,NNW,343,0.0,-999.0,94,-99.99,,,-99.99,,2013-03-08 05:52:00,
2013-03-07 22:01:00,37.0,35.0,30.00,NNW,343,0.0,-999.0,94,-99.99,,,-99.99,,2013-03-08 06:01:00,
2013-03-07 22:11:00,37.0,35.0,30.00,NNW,343,0.0,-999.0,94,-99.99,,,-99.99,,2013-03-08 06:11:00,
2013-03-07 22:21:00,37.0,35.0,30.00,NNW,343,0.0,-999.0,94,-99.99,,,-99.99,,2013-03-08 06:21:00,
2013-03-07 22:31:00,37.0,35.0,30.00,NNW,343,0.0,-999.0,94,-99.99,,,-99.99,,2013-03-08 06:31:00,